Tracking 31027 objects as of 19-Jul-2025
HD Live streaming from Space Station
objects crossing your sky now

FORMOSAT 3E

Track FORMOSAT 3E now!
10-day predictions
FORMOSAT 3E is classified as:


NORAD ID: 29051
Int'l Code: 2006-011E
Perigee: 746.5 km
Apogee: 843.7 km
Inclination: 72.0 °
Period: 100.6 minutes
Semi major axis: 7166 km
RCS: 0.58 m2 (medium)
Launch date: April 15, 2006
Source: Taiwan (Republic of China) (ROC)
Launch site: AIR FORCE WESTERN TEST RANGE (AFWTR)
Your satellite tracking list
ABS 3
Track 1 satellite(s)




NASA's NSSDC Master Catalog

Two Line Element Set (TLE):
1 29051U 06011E   25199.46232187  .00000200  00000-0  89273-4 0  9999
2 29051  72.0032 264.6048 0067844 309.1704  50.3418 14.31126462  7510
Source of the keplerian elements: AFSPC